Location: Derby
(52.9213°N, 1.4761°W)
Time: 15:10:56
(UTC+01:00)

A-11 Canister half - Pass Details

Date: 22 May 2025
Orbit: 1524 x 1684 km, 47.3° (Epoch: 14 June)

Event Time Altitude Azimuth Distance (km) Brightness Sun altitude
Rises 23:11:19 0° 273° (W) 4,744 12.0 -12.6°
Reaches altitude 10° 23:14:24 10° 270° (W) 3,779 11.4 -12.8°
Maximum altitude 23:23:44 58° 195° (SSW) 1,835 9.1 -13.4°
Drops below altitude 10° 23:33:23 10° 119° (ESE) 3,897 10.7 -14.0°
Enters shadow 23:35:19 - 117° (ESE) 4,494 11.0 -14.1°
